{"data":{"norad_id":65153,"epoch":"2026-05-25T03:19:51.106080Z","epoch_age_seconds":69940,"freshness":"FRESH","line1":"1 65153U 25171X   26145.13878595 -.00000190  00000+0  40929-5 0  9999","line2":"2 65153  51.8982 195.0728 0000375  85.1569 274.9436 14.79932962 43998","mean_motion":14.79932962,"eccentricity":3.75e-5,"inclination_deg":51.8982,"raan_deg":195.0728,"arg_perigee_deg":85.1569,"mean_anomaly_deg":274.9436,"bstar":4.0929e-6,"rev_number":4399,"period_min":97.301704670052,"perigee_km":629.27296140349,"apogee_km":629.79853685967,"semimajor_km":7007.6727491316,"source":"CELESTRAK","updated_at":"2026-05-25T13:38:05.171174Z"}}